Location: Fuentemizarra
(41.4582°N, 3.5619°W)
Time: 22:43:28
(UTC+00:00)

Daily predictions for brighter satellites

Satellite Brightness Start Highest point End
(mag) Time Altitude Azimuth Time Altitude Azimuth Time Altitude Azimuth
Exosat Rocket 4.5 20:13:43 10° NNW 20:19:09 65° WSW 20:26:27 10° S
Cosmos 1743 Rocket 3.9 20:15:29 10° N 20:19:41 46° ENE 20:23:48 10° SSE
Cosmos 1470 2.4 20:17:27 10° N 20:21:01 84° E 20:24:31 10° S
Resurs 01 Rocket 3.3 20:17:38 10° SSW 20:21:33 32° W 20:25:30 10° NNW
NOSS 2-2 (E) 4.0 20:17:57 10° NNW 20:22:08 65° NE 20:28:01 10° SE
CZ-2C R/B 4.1 20:19:09 10° SSW 20:22:15 34° W 20:25:23 10° NNW
ERS-1 Rocket 3.7 20:18:18 10° SE 20:22:55 39° ENE 20:27:33 10° N
Cosmos 1605 Rocket 4.2 20:18:11 10° N 20:24:13 57° E 20:30:10 10° SSE
Cosmos 2219 Rocket 3.5 20:20:16 10° NW 20:25:23 38° WSW 20:30:28 10° S
USA 186 2.2 20:25:03 10° S 20:27:45 51° W 20:30:30 10° NNW
CSL-04 Rocket 4.0 20:22:39 10° S 20:27:53 67° WSW 20:33:09 10° NNW
Cosmos 1461 4.5 20:30:14 10° WSW 20:33:45 37° NW 20:37:25 10° NNE
Cosmos 1066 Rocket 4.4 20:27:55 10° S 20:33:45 87° E 20:39:38 10° N
Cosmos 2237 Rocket 2.7 20:38:13 10° NNW 20:43:41 46° ENE 20:48:43 12° SE
USA 305 2.6 20:44:15 10° SW 20:48:10 58° SE 20:51:48 10° ENE
USA 215 3.7 20:43:09 10° SSE 20:49:31 55° SW 20:55:54 10° NW
Cosmos 1666 Rocket 4.1 20:47:03 10° N 20:51:19 43° ENE 20:54:55 14° SSE
Meteor 2-10 Rocket 4.1 20:45:54 10° N 20:51:26 49° ENE 20:56:11 13° SSE
Okean-O 2.6 20:50:15 10° SSE 20:54:32 72° ENE 20:58:55 10° N
MOS 1 4.5 20:50:56 10° S 20:56:36 76° WSW 21:02:17 10° NNW
Cosmos 1110 Rocket 4.1 20:52:56 10° NNW 20:58:10 75° WSW 21:03:14 10° SSE
NOSS 3-4 (A) 3.3 20:53:59 10° SW 20:59:17 80° NW 21:05:03 10° NNE
NOSS 3-4 (C) 3.3 20:54:06 10° SW 20:59:23 81° NW 21:05:09 10° NNE
Lacrosse 4 Rocket 3.1 20:57:48 10° N 21:01:06 22° NE 21:04:06 11° E
Cosmos 1633 Rocket 3.5 20:57:18 10° N 21:01:26 44° ENE 21:04:30 17° SE
Cosmos 1331 Rocket 4.1 20:57:05 10° NNW 21:02:13 75° WSW 21:07:02 12° S
Cosmos 1818 3.6 20:57:05 10° SSW 21:02:26 62° ESE 21:07:48 10° NE
COSMOS 2428 3.4 20:57:36 10° NW 21:03:07 51° WSW 21:08:35 10° S
SAR-Lupe-2 4.3 21:04:36 18° SE 21:06:49 39° ENE 21:10:12 10° N
Cosmos 1328 Rocket 3.5 21:06:15 10° S 21:10:35 76° E 21:15:00 10° N
Cosmos 2297 Rocket 2.6 21:06:26 10° SSW 21:12:03 66° WNW 21:17:42 10° NNE
Cosmos 614 Rocket 3.9 21:06:57 10° SSW 21:12:08 83° ESE 21:17:18 10° NNE
Cosmos 1455 1.6 21:09:45 10° N 21:12:25 49° E 21:13:31 28° SE
Ariane Rocket 3.7 21:09:58 17° SE 21:13:23 39° ENE 21:18:06 10° N
ARIANE 6 FM1 Upper Stage 2.6 21:09:22 10° NW 21:13:31 87° NE 21:16:17 21° SE
Meteor 2-19 Rocket 4.5 21:08:57 10° S 21:15:00 85° W 21:21:06 10° N
SPOT 3 Rocket 4.0 21:14:36 19° SE 21:18:04 48° ENE 21:23:01 10° N
Cosmos 1470 Rocket 3.9 21:17:48 10° N 21:22:00 47° E 21:24:22 23° SE
Cosmos 1758 3.4 21:21:02 10° N 21:24:40 49° E 21:26:21 27° SE
Meteor 1-13 Rocket 4.4 21:21:24 13° S 21:26:41 63° E 21:32:31 10° NNE
Cosmos 1302 Rocket 4.0 21:23:19 10° NNW 21:28:37 82° ENE 21:32:02 22° SSE
ATLAS CENTAUR R/B 1.8 21:25:40 10° NNW 21:29:20 43° NE 21:31:05 25° ESE
Helios 1A 4.3 21:28:30 10° N 21:32:11 38° WNW 21:35:49 10° SW
Cosmos 2173 Rocket 4.0 21:27:18 10° N 21:33:28 69° E 21:37:34 22° SSE
PSLV R/B 3.8 21:33:05 32° ESE 21:34:08 45° ENE 21:37:18 10° N
Cosmos 1992 Rocket 4.4 21:30:27 10° N 21:35:30 49° ENE 21:38:16 25° SE
Cosmos 1452 Rocket 4.5 21:30:56 10° NNW 21:35:52 42° WSW 21:40:08 13° S
USA 276 1.2 21:34:50 10° NW 21:36:45 71° NNW 21:36:45 71° NNW
Terra 2.7 21:32:51 12° S 21:36:56 45° W 21:41:27 10° NNW
Cosmos 1727 Rocket 4.2 21:31:03 10° SSW 21:37:12 71° W 21:43:23 10° N
Cosmos 1515 Rocket 3.6 21:34:51 24° SSE 21:37:24 62° E 21:41:47 10° NNE
SL-16 R/B 3.1 21:33:10 10° N 21:38:25 38° ENE 21:41:38 21° ESE
IRS-1C Rocket 4.1 21:35:12 22° SSE 21:38:44 90° ENE 21:44:01 10° NNW
Cosmos 2227 Rocket 2.2 21:34:57 10° SSW 21:40:35 84° WNW 21:46:17 10° NNE
RESURS DK-1 2.1 21:38:46 16° SSW 21:41:52 73° ESE 21:45:52 10° NNE
Cosmos 2263 Rocket 2.3 21:41:19 19° S 21:45:12 53° ESE 21:50:43 10° NNE
COSMOS 2455 2.9 21:40:52 10° NNW 21:46:55 78° WSW 21:50:27 26° SSE
Okean O Rocket 3.7 21:45:01 10° SW 21:48:16 21° W 21:51:34 10° NW
Cosmos 2100 Rocket 4.0 21:43:03 10° N 21:49:14 86° W 21:53:21 22° S
Spot 2 Rocket 4.1 21:47:54 18° S 21:51:29 52° W 21:56:27 10° NNW
Cosmos 1980 4.5 21:48:30 10° NW 21:53:50 44° WSW 21:57:28 19° S
Cosmos 1437 Rocket 2.4 21:55:31 40° S 21:56:42 90° ESE 22:00:17 10° N
Cosmos 1725 Rocket 4.1 21:52:17 10° N 21:58:35 68° E 22:01:55 29° SSE
Cosmos 921 Rocket 4.4 21:55:45 10° SW 21:59:41 38° WNW 22:03:44 10° N
Cosmos 2219 3.2 22:02:24 23° S 22:06:01 68° ESE 22:11:45 10° NNE
Geosat 3.9 22:06:16 10° NNE 22:11:18 83° ESE 22:14:36 22° SSW
Cosmos 909 Rocket 4.5 22:03:20 10° NNW 22:11:20 68° NE 22:14:56 30° SE
COBE Rocket 3.9 22:08:27 10° NNE 22:13:28 66° E 22:15:11 39° SSE
USA 290 2.7 22:14:13 47° ENE 22:14:13 47° ENE 22:16:47 10° NNE
Cosmos 2082 3.7 22:12:58 32° S 22:15:30 61° ESE 22:21:09 10° NNE
Cosmos 2123 Rocket 4.2 22:11:21 18° SSW 22:16:09 70° W 22:22:24 10° N
SL-8 R/B 4.3 22:15:20 10° WNW 22:20:00 52° NNE 22:22:54 22° E
ARIANE 5 R/B 4.2 22:20:49 21° E 22:21:53 23° ENE 22:25:21 10° NNE
SL-4 R/B 1.8 22:21:17 40° SSW 22:22:39 70° SE 22:26:42 10° ENE
Cosmos 2237 Rocket 3.8 22:22:51 10° NW 22:27:24 25° WSW 22:30:32 16° SW
Cosmos 1140 Rocket 3.4 22:26:48 45° SSE 22:28:14 64° ESE 22:33:19 10° NNE
Cosmos 1953 2.1 22:26:54 10° N 22:30:38 67° E 22:30:44 67° E
Cosmos 1703 4.3 22:34:57 30° ENE 22:34:57 30° ENE 22:37:19 10° NNE
Cosmos 2061 Rocket 3.9 22:30:52 10° N 22:37:10 87° E 22:39:35 40° S
Lacrosse 4 Rocket 2.2 22:35:14 10° NW 22:39:10 38° WSW 22:39:42 36° SW
Cosmos 1892 4.3 22:43:00 19° NE 22:43:00 19° NE 22:44:12 10° NNE
Cosmos 1023 Rocket 4.3 22:40:15 42° SSW 22:42:01 89° WNW 22:47:08 10° NNE
Cosmos 407 Rocket 3.5 22:50:55 53° SE 22:51:27 56° ESE 22:56:26 10° NNE
CZ-4C R/B 3.5 22:50:11 10° NNE 22:52:42 51° NNE 22:52:42 51° NNE
Cosmos 2228 Rocket 3.3 22:54:32 53° E 22:54:35 53° E 22:58:55 10° NNE
Cosmos 1844 Rocket 3.2 22:54:47 38° ESE 22:55:03 39° ESE 23:00:16 10° NE
IRIDIUM 104 4.2 22:55:45 56° S 22:56:54 84° E 23:02:08 10° N
Cosmos 1447 Rocket 4.4 22:55:55 41° SSW 22:58:15 84° W 23:04:28 10° N
Cosmos 2251 Rocket 4.0 22:59:05 41° ESE 22:59:16 41° ESE 23:04:17 10° NNE
Cosmos 1844 4.3 22:59:50 37° ESE 22:59:53 37° ESE 23:04:56 10° NE
GP-B 4.1 22:55:58 10° NNW 23:00:03 40° W 23:01:12 33° WSW
ATLAS CENTAUR R/B 3.4 23:02:46 10° WNW 23:04:28 15° W 23:04:28 15° W
USA 234 4.4 22:59:50 10° ENE 23:03:50 23° ESE 23:03:50 23° ESE
Cosmos 1707 Rocket 3.4 23:05:00 79° ESE 23:05:02 79° E 23:09:21 10° N
Cosmos 2084 Rocket 4.4 23:01:40 10° NW 23:05:01 33° WSW 23:05:01 33° WSW
USA 59 Rocket 2.6 23:04:06 10° NNE 23:05:28 12° NE 23:06:58 10° ENE
IRIDIUM 114 4.3 23:04:53 55° SSW 23:06:03 80° W 23:11:18 10° N
Landsat 5 3.8 23:06:08 10° NNE 23:09:56 55° ENE 23:09:56 55° ENE
Cosmos 540 Rocket 4.1 23:08:37 10° N 23:13:30 43° ENE 23:14:32 38° E
ALOS 2 3.3 23:14:27 40° E 23:14:42 41° ENE 23:18:50 10° N
IRIDIUM 103 4.5 23:14:01 50° SW 23:15:13 66° W 23:20:25 10° N
Cosmos 1733 Rocket 3.0 23:17:36 10° NNW 23:21:59 73° W 23:21:59 73° W
SL-16 R/B 3.3 23:17:27 10° NW 23:22:23 31° WSW 23:23:30 29° SW
ATLAS 2AS CENTAUR R/B 3.4 23:25:05 35° ESE 23:25:37 36° ESE 23:31:51 10° NE
BREEZE-M DEB (TANK) 4.4 23:13:36 10° SW 23:28:12 33° ESE 23:30:24 10° ENE
Cosmos 2263 Rocket 4.2 23:24:50 10° WSW 23:29:25 25° NW 23:34:02 10° N
Cosmos 1464 Rocket 4.0 23:23:15 10° N 23:29:32 70° E 23:31:00 52° SE
CZ-2C R/B 4.2 23:28:54 10° N 23:33:18 52° WNW 23:34:03 46° WSW
Cosmos 2034 Rocket 4.4 23:30:19 10° N 23:36:24 53° ENE 23:37:59 43° ESE
SeaSat 1 3.7 23:37:32 26° E 23:39:13 33° NE 23:43:35 10° N
ASTEX 1 4.1 23:36:02 10° N 23:40:44 45° WNW 23:41:43 40° WSW
Cosmos 1908 Rocket 4.0 23:37:55 10° N 23:42:02 53° ENE 23:42:02 53° ENE
Cosmos 1943 3.2 23:38:31 10° NNW 23:44:09 63° WSW 23:44:50 58° SW
Aureole 3 Rocket 3.5 23:41:04 10° NNW 23:43:25 44° NW 23:43:25 44° NW
MetOp-A 4.4 23:48:13 44° WSW 23:48:20 44° W 23:52:47 10° NNW
Cosmos 1271 Rocket 3.5 23:50:19 45° N 23:50:19 45° N 23:52:56 10° N
SL-12 R/B(2) 4.4 23:48:03 42° SSE 23:49:56 49° ESE 23:58:36 10° NE
Cosmos 1763 Rocket 3.4 23:47:00 10° NNW 23:52:06 68° WSW 23:52:18 67° WSW
Okean 1-7 3.8 23:56:02 41° WNW 23:56:02 41° WNW 23:59:52 10° N
